Wind_Speed
29 28 26 25 24 22 20 18 18 17 16 14 13 13 11 9 9 8 6 6 6 6 8 9 11 12 14 15 17 18 18 19 21 22 22 23 23 24 25 26 27 29 31 32 34 36 39 41 41 41 41 40 39 35 31 26 21 16 11 8 5 2 1 1 3 4 4 6 9 10 8 7 6 5 5 7 8 7 6 4 4 3 2 1 0 0 0 1
32 31 29 28 27 25 23 21 20 19 19 18 16 16 14 12 11 10 8 8 7 7 7 8 10 11 12 14 15 17 17 18 19 20 21 22 22 23 23 24 26 27 29 30 32 34 36 39 40 41 41 40 39 37 33 29 25 21 15 11 7 5 3 3 1 1 2 3 6 8 8 7 6 5 4 6 7 6 4 2 2 2 2 1 1 2 1 1
34 33 32 31 30 28 27 25 23 21 21 20 20 18 17 15 14 13 11 10 9 8 7 8 9 10 11 13 14 16 17 17 18 19 20 21 21 21 22 23 24 26 27 29 30 32 33 36 38 39 40 40 39 38 35 31 28 25 21 15 10 7 5 4 3 1 2 3 4 5 6 7 6 4 3 4 5 5 3 2 2 2 1 2 2 2 2 1
37 36 35 34 33 31 30 28 26 24 23 23 22 21 20 18 17 16 14 13 11 10 9 8 9 10 11 12 13 15 16 17 17 18 19 20 20 20 21 22 23 24 26 27 28 30 31 33 36 38 39 40 39 38 36 33 30 28 25 21 16 11 7 4 4 4 4 4 3 4 5 6 6 5 3 3 3 3 3 2 2 2 2 2 2 2 3 3
39 38 38 37 36 35 33 31 30 28 26 25 24 24 22 21 20 18 17 15 14 12 11 10 9 10 11 11 13 14 16 17 17 17 18 18 19 20 20 20 22 23 24 25 27 28 29 31 33 36 38 39 39 38 37 34 31 29 27 24 21 16 12 8 5 5 6 6 5 4 5 5 6 5 4 1 1 2 3 3 3 3 4 4 5 5 5 6
41 40 40 39 38 38 36 34 32 31 29 28 27 26 25 24 22 21 19 18 16 15 13 11 10 10 10 11 12 13 15 16 17 16 17 17 18 19 19 19 20 21 23 24 25 26 27 29 31 33 36 38 39 38 37 35 33 30 28 26 24 20 17 12 7 6 8 8 6 4 4 4 4 5 4 3 3 3 4 5 5 5 5 5 6 7 7 8
43 42 42 42 41 40 39 37 35 34 32 31 29 28 27 26 24 23 21 20 18 17 15 13 12 11 10 11 12 13 14 15 16 16 16 17 17 17 18 18 19 20 21 23 24 25 26 27 28 31 34 37 38 38 37 36 34 31 29 27 25 22 18 13 9 6 7 8 7 5 4 3 3 3 4 4 4 5 5 6 7 7 7 7 7 7 7 8
44 45 44 44 43 42 41 40 38 36 35 34 32 30 29 28 27 25 23 22 21 19 17 15 14 13 11 11 11 12 13 14 15 16 16 16 16 16 17 18 18 18 20 21 22 24 25 25 26 29 32 35 37 38 37 36 35 33 30 28 27 23 18 13 9 6 4 5 6 6 5 4 3 3 3 3 4 5 6 7 8 8 8 8 8 8 8 8
44 45 46 46 45 45 44 42 40 39 37 36 35 33 32 31 29 27 26 24 23 21 19 17 15 14 13 11 11 12 12 13 14 15 16 16 16 16 16 17 18 17 18 20 21 22 24 24 25 27 29 33 35 37 37 35 35 34 32 30 28 25 20 15 10 6 3 1 3 4 4 4 3 3 4 4 5 6 6 7 8 8 9 9 10 9 9 9
45 45 47 48 48 47 46 45 43 41 40 39 38 36 34 33 32 30 28 26 25 23 21 19 17 16 14 13 12 12 12 13 14 15 15 16 16 16 16 15 17 17 17 18 20 21 22 23 24 25 27 30 33 35 36 35 35 34 33 31 29 27 23 18 13 8 6 4 2 1 1 1 2 3 5 6 6 7 7 7 8 8 9 10 10 10 10 10
47 46 46 48 49 49 48 47 45 43 42 41 40 39 37 35 34 33 31 29 27 25 23 21 19 17 16 14 13 13 13 13 14 15 15 16 16 16 16 15 15 16 16 16 18 19 21 22 23 24 25 28 31 33 35 35 34 34 33 32 30 27 25 22 18 14 10 8 5 4 3 2 2 4 5 6 6 7 7 7 8 8 8 9 10 10 10 10
49 48 47 48 49 50 50 49 47 46 45 44 42 41 40 38 36 35 33 31 30 28 26 23 21 19 18 16 15 14 13 14 14 15 15 16 16 16 16 15 14 15 16 15 16 18 19 21 22 23 24 26 28 31 33 35 34 34 33 32 30 28 26 24 22 19 15 10 6 4 2 2 3 4 5 5 6 6 6 6 7 8 8 9 10 10 10 10
51 50 50 49 49 50 51 51 50 48 47 46 44 43 42 40 39 38 36 34 32 31 29 26 23 21 20 18 17 16 15 14 15 15 16 16 16 16 16 15 14 13 15 15 14 16 18 19 21 22 22 23 26 28 31 33 34 33 32 32 30 28 26 25 24 22 17 13 10 7 4 2 1 2 3 4 5 5 5 6 7 8 9 9 9 9 9 10
54 53 52 51 51 50 51 51 51 51 50 48 47 45 44 43 41 40 39 37 35 34 32 29 26 24 22 20 19 18 16 15 15 16 16 17 17 17 16 16 15 13 13 14 14 14 16 18 19 20 21 22 23 26 29 31 33 33 31 31 30 29 27 25 24 22 20 16 13 10 8 6 4 3 2 2 3 4 5 6 6 7 8 9 9 9 9 10
57 56 54 53 53 52 52 51 51 52 52 51 49 47 46 45 43 42 41 39 37 36 35 32 29 26 25 23 21 20 18 17 16 16 17 17 17 17 16 16 15 13 12 13 13 13 14 16 17 19 19 20 21 23 26 29 31 32 31 30 28 28 28 26 24 21 20 17 14 11 9 7 5 4 2 1 1 1 2 4 4 5 6 7 8 9 10 11
60 58 57 56 55 54 54 53 52 52 53 53 51 50 49 47 46 45 44 42 40 39 37 35 32 30 27 25 23 22 20 19 18 17 18 18 18 18 17 16 15 14 12 12 12 12 12 14 16 17 18 19 19 21 23 26 29 30 30 29 27 27 27 27 25 21 19 17 15 13 11 9 7 6 5 4 4 3 3 3 3 4 5 6 8 9 11 12
62 61 60 59 58 57 56 54 53 53 53 53 53 52 51 49 48 47 46 44 42 41 40 38 36 33 30 28 26 24 22 21 20 19 19 19 19 18 18 17 16 15 13 12 12 12 12 13 14 15 16 17 18 19 21 24 27 28 29 28 27 26 26 26 25 23 20 17 15 14 13 11 10 8 7 6 6 6 6 6 6 6 7 8 9 11 12 12
64 63 62 60 60 59 58 56 55 55 54 54 54 54 53 52 50 49 48 47 45 43 42 40 39 36 33 31 29 27 25 23 22 21 20 20 20 19 18 17 16 15 14 12 12 12 12 12 13 14 15 16 17 18 19 21 23 26 28 28 27 26 25 25 24 23 22 20 17 14 13 12 10 9 8 8 8 8 8 8 9 8 8 9 10 11 12 13
66 65 64 62 61 61 60 59 57 56 56 55 55 55 55 54 53 52 51 49 47 46 44 43 41 39 37 34 32 29 28 26 24 23 21 21 20 20 19 18 17 16 15 14 13 13 12 12 13 14 14 15 16 17 18 19 20 22 25 26 27 26 25 24 24 23 22 22 20 17 14 12 11 9 9 10 10 10 10 11 11 11 11 11 12 13 14 15
69 67 66 65 63 62 62 60 59 58 58 57 56 56 55 55 54 54 53 51 50 48 46 45 44 42 40 38 35 33 31 28 26 25 24 23 21 20 20 19 18 16 16 15 14 13 13 13 13 14 14 15 16 16 17 17 18 19 21 23 25 26 25 24 24 24 23 22 22 20 18 16 14 13 12 11 11 11 12 12 13 13 13 14 14 15 16 17
70 70 69 67 66 64 63 62 61 60 60 59 58 57 56 56 55 55 55 53 52 50 48 47 46 45 43 41 39 36 33 31 29 27 26 24 23 22 21 20 18 17 17 16 15 14 13 14 13 13 14 15 16 16 16 16 17 17 19 20 22 24 24 24 23 23 23 23 22 22 20 19 18 17 16 14 13 13 13 13 14 15 16 16 16 17 17 18
69 70 70 70 68 67 65 64 62 62 62 61 59 58 57 57 57 56 56 55 54 53 51 49 48 46 45 44 42 39 36 34 31 29 28 27 24 23 22 21 19 18 17 17 16 15 14 14 14 13 14 15 16 16 16 16 16 16 17 18 20 21 23 23 23 22 23 23 22 22 21 20 20 19 18 17 16 15 14 14 15 17 18 17 17 18 18 18
69 69 70 71 71 70 68 66 64 63 63 62 61 60 59 58 58 57 57 57 56 55 53 51 50 48 47 45 44 42 39 36 34 32 31 29 26 25 24 23 20 19 18 18 18 16 15 15 15 14 14 14 15 16 16 16 16 16 16 17 18 19 21 22 23 22 22 22 22 22 22 21 21 20 20 20 19 17 16 15 16 17 18 19 19 18 19 19
68 69 70 71 72 72 72 69 67 65 64 63 63 62 60 59 59 59 59 58 58 57 55 54 52 51 49 47 46 44 42 39 36 34 33 31 29 27 26 24 22 20 20 19 19 17 16 16 16 15 15 14 15 15 16 16 17 17 17 17 17 18 19 20 22 22 22 22 21 21 21 21 21 21 21 21 21 20 19 17 17 17 19 20 21 20 20 20
69 69 70 70 71 72 73 73 70 68 66 64 64 63 62 61 60 60 60 60 59 58 57 56 55 53 51 49 48 46 43 40 38 37 35 33 31 30 28 26 23 22 21 20 20 18 17 17 17 17 16 15 15 15 15 16 16 17 17 17 17 17 18 19 20 21 22 22 21 20 21 20 20 20 20 21 21 21 21 20 19 18 19 21 22 22 22 22
69 70 70 70 71 71 73 74 73 71 68 66 65 64 64 63 61 61 61 61 61 60 59 58 57 55 53 51 49 47 44 41 40 39 37 35 34 32 30 28 25 24 23 22 21 20 19 19 19 18 17 17 17 17 16 16 16 17 18 18 18 18 18 19 19 19 20 21 21 21 20 20 20 19 19 20 20 20 20 20 20 19 20 21 22 23 23 24
69 70 71 71 71 72 72 74 74 74 72 69 67 65 65 64 63 62 63 63 62 61 61 60 58 57 55 53 51 48 46 44 42 41 39 38 36 34 32 30 27 26 25 23 22 21 20 20 20 20 19 19 19 18 18 17 17 17 18 18 18 19 19 19 19 19 19 19 20 21 21 20 19 19 19 19 19 20 20 20 20 20 21 22 23 24 24 24
70 70 71 72 72 73 73 73 74 75 74 73 70 67 66 66 65 64 64 64 63 62 63 62 60 59 57 55 52 50 48 46 44 42 41 40 37 36 35 33 30 28 27 25 24 23 22 22 21 21 21 21 20 20 20 19 18 18 19 19 19 20 20 20 20 20 20 19 19 20 21 21 20 20 20 20 20 20 20 20 20 20 21 22 23 24 25 25
71 71 71 71 73 74 75 74 74 75 75 75 73 70 68 67 67 66 66 64 63 64 64 63 62 60 59 57 54 53 50 48 45 43 43 42 40 39 38 36 33 31 29 28 27 26 25 24 23 22 22 22 22 22 22 21 20 20 20 21 21 21 21 21 21 21 21 21 20 20 21 21 21 21 21 21 21 21 21 21 21 21 21 22 23 24 25 25
73 72 71 71 72 74 75 76 75 75 76 76 76 74 71 69 68 68 67 65 65 65 65 64 63 62 60 59 57 55 52 50 47 45 44 43 43 42 41 38 36 33 31 30 30 29 27 26 24 23 23 23 23 23 23 23 22 22 22 23 23 23 24 23 23 23 22 22 21 21 21 21 21 21 22 22 22 22 22 22 22 22 23 23 23 24 26 27
75 74 73 72 72 73 75 77 77 76 76 77 77 77 75 72 70 69 68 66 66 67 66 65 65 63 62 61 59 56 54 52 50 47 45 45 44 44 43 41 38 35 34 33 33 32 30 28 26 25 24 24 25 25 25 25 24 24 23 24 25 25 26 26 25 25 24 24 23 22 22 22 21 21 23 23 23 24 24 23 23 23 24 25 25 26 27 28
76 76 75 74 73 73 74 76 78 78 78 78 78 78 77 75 72 70 69 69 69 69 67 66 65 65 64 63 60 58 56 54 52 49 47 46 46 46 45 42 39 38 37 36 36 34 32 30 29 27 25 25 25 26 26 26 26 25 25 26 26 27 28 28 28 28 27 26 25 25 24 24 23 22 23 24 25 25 26 26 25 25 25 26 27 27 28 30
78 78 77 76 75 74 73 75 77 79 79 79 79 79 79 78 74 72 72 72 71 69 68 67 67 66 66 64 62 59 58 55 53 51 49 47 46 46 46 44 42 41 40 39 38 35 34 33 31 29 27 27 26 26 27 28 28 27 27 28 28 29 30 30 31 31 30 29 28 28 27 27 25 24 24 25 26 26 27 28 28 28 27 28 29 29 29 31
79 79 79 78 77 76 75 75 77 79 80 81 81 81 80 78 76 76 75 74 72 71 70 69 68 68 67 65 63 61 59 57 55 53 51 49 47 47 47 46 45 45 43 42 40 38 37 36 34 31 29 29 28 27 27 28 29 29 29 29 30 31 31 32 32 33 33 32 32 31 30 29 28 27 26 26 27 27 28 29 30 31 31 30 31 31 31 32
81 81 80 79 78 78 77 76 76 78 80 82 82 81 81 80 80 80 79 75 73 73 72 70 69 69 68 65 64 63 61 58 57 55 53 50 48 48 48 49 49 47 46 45 43 41 40 38 36 33 32 32 31 29 29 29 30 30 30 30 31 32 33 33 33 34 34 35 35 34 33 32 31 30 29 28 28 29 29 30 31 33 34 33 33 32 33 33
82 82 82 81 80 79 79 78 77 77 79 82 82 82 83 84 84 83 80 77 76 75 73 73 72 70 68 67 65 64 62 60 58 56 54 52 51 50 50 51 51 50 49 47 45 44 42 40 38 35 34 34 33 32 31 31 31 32 31 31 32 33 34 34 34 35 36 36 37 37 36 36 35 33 33 32 31 31 31 31 32 33 35 36 36 35 35 35
83 83 83 82 81 80 80 80 79 78 79 81 82 82 85 87 86 84 82 80 78 77 76 75 74 72 70 68 66 65 63 62 60 58 56 55 53 52 52 52 52 52 52 50 48 46 45 42 40 39 37 37 36 35 34 33 33 33 33 33 34 34 34 35 36 37 38 38 39 39 38 39 38 37 36 36 34 34 34 34 34 35 36 38 38 38 38 38
83 84 84 83 82 82 82 82 81 80 79 80 81 83 86 88 88 86 84 82 81 79 78 77 75 73 71 69 68 66 65 64 62 60 59 57 56 55 55 54 54 55 54 52 50 49 47 45 43 42 41 40 39 37 37 36 36 35 35 35 35 36 35 36 37 38 39 40 40 41 40 40 40 40 40 40 39 38 37 37 37 37 38 39 40 40 40 40
83 84 84 83 83 83 83 83 82 81 79 79 81 84 86 88 90 89 86 85 83 82 81 79 76 75 73 72 70 67 66 65 64 62 61 60 58 58 57 56 56 56 55 53 52 51 50 48 46 45 44 42 41 41 40 39 38 37 37 37 37 37 37 37 38 40 41 42 42 43 42 41 41 41 41 42 42 42 41 41 40 40 41 41 42 43 43 43
82 84 84 83 83 83 83 83 83 82 80 80 82 85 87 89 90 91 89 87 86 84 83 80 78 77 76 74 71 69 68 66 65 64 63 62 60 60 60 59 57 57 56 55 54 53 53 51 49 47 47 45 44 44 43 41 40 40 40 39 39 39 38 38 40 41 42 43 44 45 45 43 41 42 42 43 44 44 44 43 43 43 43 44 44 45 45 45
80 83 83 83 83 83 83 83 83 82 80 81 84 86 88 89 90 92 92 90 88 86 84 82 81 79 78 75 73 71 69 68 67 67 66 63 62 62 62 60 59 58 57 56 56 56 56 54 52 49 49 48 47 46 46 44 43 43 42 41 40 40 40 41 42 43 44 45 46 47 47 45 43 43 44 45 45 45 45 45 45 45 45 46 46 47 48 48
77 80 82 83 82 83 83 83 82 82 81 82 84 87 89 89 90 92 94 93 91 89 87 85 83 81 80 78 75 73 71 69 68 68 67 65 64 65 64 62 61 60 58 57 58 58 58 57 54 52 52 51 50 49 48 46 45 45 44 43 41 41 42 42 44 45 45 46 47 49 50 49 46 45 46 46 46 46 46 46 46 46 47 47 48 49 50 50
74 78 81 82 81 82 83 82 82 82 82 82 85 87 89 90 90 92 95 95 93 91 89 87 85 84 82 79 77 75 73 71 70 69 68 67 67 66 65 64 63 62 60 59 59 60 60 59 56 54 54 54 52 51 50 49 48 47 46 44 42 43 43 44 45 46 47 48 49 50 52 52 49 48 48 48 48 48 48 48 48 48 48 49 50 50 51 52
70 75 78 80 80 81 82 81 81 82 82 83 85 88 89 90 90 92 95 97 96 93 91 89 88 86 84 81 79 77 75 73 71 70 69 69 69 68 67 66 65 64 62 61 62 62 61 60 59 57 56 55 55 54 53 53 52 48 46 46 45 44 44 44 46 47 49 50 50 51 54 54 53 51 51 49 49 50 50 50 50 50 49 50 51 52 53 53
67 71 75 77 78 79 80 81 81 81 82 83 85 87 88 90 91 92 94 97 97 96 94 92 90 88 86 83 81 79 77 75 73 72 71 71 71 70 69 68 67 66 64 64 63 63 62 61 60 59 58 57 57 56 56 56 53 49 48 49 47 46 46 46 47 48 50 51 52 53 55 56 55 55 53 51 51 51 52 52 52 52 51 51 52 53 54 55
63 68 72 74 76 78 79 80 80 80 81 83 84 86 88 90 92 92 94 97 99 98 97 95 93 90 88 86 83 81 79 77 75 74 73 73 73 72 71 70 69 68 67 66 65 64 63 62 62 61 60 60 59 58 59 58 54 52 52 51 49 48 48 48 48 49 51 52 53 55 57 57 58 57 55 53 53 54 55 54 54 54 54 54 54 55 56 57
60 64 68 71 74 76 77 78 79 79 80 82 84 86 88 90 92 93 94 97 100 101 99 97 95 93 90 88 85 83 81 79 77 76 75 74 74 74 73 72 71 70 69 67 66 65 64 64 64 63 63 62 61 61 61 60 57 55 54 53 52 51 50 50 50 51 52 53 54 57 58 58 60 59 57 55 55 56 57 57 56 56 57 57 57 57 57 58
58 61 65 69 71 73 75 77 78 78 79 81 83 85 88 91 93 94 94 97 100 102 101 100 97 95 92 89 87 85 83 81 79 78 77 76 75 75 74 74 73 72 70 69 67 67 66 66 65 65 64 64 63 63 62 61 59 58 56 55 54 53 52 52 52 53 54 55 56 58 59 59 61 61 58 57 58 59 59 59 58 58 59 60 60 60 60 60
56 59 62 66 68 70 73 75 76 77 78 80 82 85 88 91 93 94 95 97 101 103 103 101 99 96 94 92 89 87 85 83 81 80 78 77 77 76 76 76 76 74 73 71 70 69 69 68 67 67 66 65 65 65 64 63 62 60 58 57 56 55 55 55 55 55 56 57 58 59 59 60 63 62 60 60 60 60 61 60 60 61 61 62 63 63 63 64
54 56 59 63 65 68 70 72 74 75 77 79 81 84 87 90 93 94 96 98 100 103 103 102 100 98 96 94 92 89 87 85 83 81 80 79 78 78 77 78 78 77 75 74 72 71 71 69 68 68 67 67 67 66 66 65 64 62 60 58 57 58 58 58 57 57 58 59 60 60 60 61 63 63 62 63 63 62 63 63 63 63 64 64 65 65 66 66
53 54 57 60 62 65 67 69 72 73 75 77 80 83 87 90 93 95 96 98 100 102 103 103 102 100 98 96 93 91 89 87 85 83 82 81 80 79 80 80 80 79 78 76 74 73 72 70 70 70 69 68 69 68 68 67 66 64 62 60 60 61 61 60 59 59 59 60 60 60 61 62 63 63 63 64 64 63 64 64 65 65 66 66 66 66 67 67
52 53 55 57 60 62 64 66 69 71 73 75 78 82 86 89 92 94 96 97 100 102 103 104 103 102 100 97 94 92 90 88 87 86 84 83 82 82 81 82 81 80 79 77 76 74 73 72 71 71 70 70 71 71 70 69 67 64 63 63 64 64 63 62 60 60 61 61 60 61 62 63 63 63 64 64 65 65 65 65 66 66 67 67 67 67 68 68
Wind_Direction
237 238 238 239 242 242 239 238 242 249 254 255 256 259 262 266 274 283 294 310 331 353 5 6 9 15 17 18 20 21 21 23 25 28 31 32 33 34 34 34 33 32 32 32 33 33 34 34 33 33 33 33 33 32 32 32 31 32 30 29 25 357 296 242 148 129 133 130 128 130 130 123 113 99 88 85 86 85 77 56 35 28 23 10 328 341 310 289
237 239 239 240 241 243 243 241 241 245 251 255 257 260 263 265 270 277 284 294 307 326 346 355 359 5 12 14 15 17 17 19 22 24 27 30 31 32 33 33 32 31 31 31 32 32 33 33 33 32 32 33 33 32 31 30 28 27 26 26 20 359 333 301 307 119 158 155 140 137 133 124 112 94 76 73 75 77 73 56 35 27 21 29 51 64 81 123
236 238 240 241 241 243 244 244 243 243 247 253 256 259 263 265 268 272 279 285 294 307 324 338 347 354 3 9 10 12 13 14 17 20 24 27 28 30 31 31 31 31 31 31 31 31 31 32 32 31 30 31 32 32 31 29 28 27 25 25 24 16 359 323 303 267 228 197 153 132 126 123 118 103 67 51 56 66 70 64 54 31 6 20 42 45 48 41
235 236 239 241 242 242 243 245 245 244 245 249 254 257 261 264 267 270 275 279 286 295 307 322 334 342 351 1 4 7 9 9 12 15 19 23 24 26 28 29 29 29 29 30 30 30 30 30 31 31 30 30 31 31 30 29 28 27 25 23 23 28 27 355 297 262 243 217 173 139 131 135 139 134 98 45 23 27 31 25 16 353 329 330 343 344 347 351
235 236 237 239 242 243 243 245 246 246 246 247 251 255 258 261 264 268 271 275 280 287 296 307 320 332 340 351 357 1 4 5 7 11 14 18 20 22 24 25 26 26 27 29 29 30 29 29 30 30 29 29 30 30 29 29 28 28 26 23 20 22 27 15 322 272 250 232 200 164 144 147 156 158 147 142 304 326 339 333 329 328 320 318 317 313 315 320
236 236 237 238 240 242 243 244 245 247 247 247 249 252 255 258 261 265 268 272 276 281 287 296 306 320 330 340 349 354 358 0 3 5 8 12 15 18 19 21 23 23 24 26 27 28 29 28 28 29 28 28 29 29 28 28 28 29 28 26 22 19 18 8 336 288 251 233 213 188 163 155 162 170 178 203 244 265 289 298 300 303 303 305 306 305 308 311
236 237 237 238 239 241 242 242 244 246 247 248 249 251 254 256 259 262 265 268 272 276 281 288 296 307 320 329 339 346 350 354 357 0 3 6 9 13 15 17 19 19 20 23 25 26 28 28 26 27 27 28 28 29 28 27 27 28 30 29 28 26 22 11 348 306 254 225 207 196 185 175 172 182 196 215 240 252 265 278 285 290 294 295 296 299 304 309
237 237 237 238 239 240 241 242 242 244 246 248 249 250 252 255 257 259 262 265 268 272 276 281 289 297 308 319 328 336 342 346 351 354 357 0 4 7 10 13 15 14 16 20 22 24 27 28 26 25 26 27 28 28 27 27 27 28 30 31 31 32 31 26 10 336 278 223 202 195 190 194 201 211 224 233 248 256 262 269 275 281 288 292 294 296 299 305
237 237 237 238 239 240 241 241 241 243 245 247 248 249 251 254 256 258 259 262 265 268 272 276 282 289 298 308 318 326 332 338 343 348 351 354 358 1 4 9 11 10 11 15 19 21 24 27 26 25 25 26 27 27 27 26 26 27 29 31 32 33 35 35 26 6 341 265 200 193 190 197 217 237 249 254 257 259 260 266 271 277 285 290 294 297 301 304
236 237 237 238 238 239 241 241 241 242 243 245 247 248 250 253 255 257 258 260 263 265 268 272 276 282 289 297 306 315 322 328 335 340 345 348 352 355 359 3 7 6 6 11 16 18 20 25 26 24 24 25 26 26 26 26 25 26 27 29 32 33 33 34 35 34 34 31 29 36 201 226 241 251 260 263 262 262 264 268 275 282 287 292 295 300 303 304
236 236 237 238 238 239 240 241 241 242 242 244 246 247 249 251 253 256 257 258 260 262 265 268 271 275 282 288 295 303 311 319 326 332 337 342 345 350 354 357 0 3 4 6 11 15 16 22 25 24 24 24 25 25 26 26 25 26 26 28 30 32 32 33 36 40 42 39 29 17 358 314 277 257 265 269 269 269 271 276 283 288 292 294 297 300 301 300
235 236 237 238 238 239 239 240 240 241 242 243 244 246 247 249 251 254 256 257 258 260 262 265 268 271 275 281 287 294 301 309 317 323 328 334 339 344 348 350 352 358 1 1 6 11 12 18 23 24 23 23 24 24 25 26 26 26 25 26 28 29 32 33 35 37 40 40 35 31 21 305 273 258 263 269 272 275 280 288 295 300 301 301 301 301 303 304
236 236 236 237 238 239 239 240 240 240 241 242 243 245 246 247 249 252 254 255 257 259 260 262 264 268 270 274 280 285 292 300 308 314 319 325 331 337 341 345 345 350 356 357 360 6 8 13 20 23 23 23 23 23 24 26 27 26 25 25 25 26 31 34 35 36 35 37 39 35 27 7 317 264 262 271 278 288 296 302 308 310 308 305 304 307 314 322
235 236 236 237 238 239 240 240 239 240 240 241 242 243 245 246 247 249 252 254 256 257 259 260 261 264 267 270 274 279 285 292 299 305 310 316 323 329 333 338 340 342 349 352 353 359 3 8 15 20 21 22 22 22 23 25 28 28 26 25 24 23 28 33 37 37 34 37 41 32 21 24 19 3 336 302 295 304 308 309 308 305 305 305 311 320 331 337
234 234 235 236 237 238 239 240 240 239 240 240 241 242 244 245 246 248 250 251 253 256 258 259 260 261 264 267 270 274 279 284 290 296 302 309 315 321 325 330 334 334 339 346 348 352 357 2 10 16 20 20 21 22 22 24 28 29 27 26 24 23 25 31 37 40 37 40 43 37 33 38 37 34 40 22 296 317 314 307 307 308 311 318 328 338 344 343
233 233 234 235 237 238 239 240 240 240 240 240 240 241 242 244 245 246 248 249 251 253 256 258 259 259 261 264 266 270 274 278 283 288 294 301 308 313 318 323 327 328 329 336 341 343 347 354 2 10 16 18 19 21 22 23 26 28 28 27 25 24 25 28 33 37 39 40 42 44 47 52 55 63 77 88 89 74 52 27 3 347 342 342 347 350 347 341
234 233 233 234 236 237 238 239 240 240 240 240 239 240 241 242 244 245 247 248 249 251 253 255 257 258 259 261 263 266 270 273 277 282 287 293 301 306 311 316 319 322 322 326 333 337 339 345 354 2 10 14 16 18 21 23 24 26 27 27 26 27 27 27 30 32 35 36 36 39 42 44 45 46 53 63 64 58 47 38 24 9 0 357 355 351 345 340
234 234 233 233 234 235 237 238 239 240 240 240 240 239 240 241 242 244 245 246 247 249 250 253 255 257 258 258 261 263 266 269 272 276 280 286 293 299 304 309 312 315 316 316 323 331 332 334 343 353 1 7 12 14 19 23 22 23 24 25 25 28 29 29 29 30 32 34 33 32 31 31 30 25 27 35 38 38 33 28 21 13 6 2 356 349 345 343
234 234 233 233 233 234 235 236 238 239 240 241 240 240 239 240 241 243 244 245 247 247 249 250 253 255 256 257 259 261 263 265 268 271 275 279 286 293 297 302 305 308 310 310 313 322 326 327 333 343 351 358 5 9 15 20 21 22 23 23 23 26 28 29 29 30 31 32 34 34 29 25 22 16 17 20 22 22 21 18 14 11 9 4 357 351 349 348
234 234 234 234 233 233 234 235 236 238 239 240 241 241 240 239 240 241 243 245 245 247 247 249 251 253 255 256 256 258 260 262 264 267 270 274 279 286 291 295 298 300 303 304 305 312 320 321 325 334 342 348 355 2 8 15 18 19 20 22 23 24 26 27 28 29 30 31 32 34 34 30 25 22 19 16 15 13 11 8 5 4 4 2 357 353 352 350
234 234 234 234 234 233 233 233 234 236 238 239 240 241 241 240 240 240 242 244 245 246 247 247 249 251 252 254 255 256 258 259 260 262 266 269 273 279 284 288 291 293 296 299 299 304 312 316 319 325 333 339 345 352 359 5 10 14 16 18 21 23 25 25 25 26 28 29 30 31 33 33 30 29 28 24 18 14 9 3 359 358 358 357 353 351 350 347
235 234 234 234 234 234 233 233 233 235 236 238 239 240 241 241 240 240 241 242 244 244 245 246 247 249 251 252 253 254 255 256 257 259 262 265 268 273 278 282 285 286 289 293 294 297 303 309 313 317 323 330 335 342 348 354 360 6 11 13 16 20 23 24 24 23 24 26 27 27 28 31 30 29 30 29 27 21 14 7 1 358 357 356 352 348 346 344
235 235 234 234 234 235 234 233 233 234 235 236 238 239 240 241 241 240 240 241 242 244 244 245 247 248 249 250 252 253 253 254 255 256 258 261 264 268 272 277 279 280 283 287 289 292 295 301 306 310 314 320 326 332 338 343 348 355 3 8 10 14 17 21 22 21 20 21 23 23 23 25 26 25 26 26 26 24 19 12 5 0 358 358 355 350 346 342
235 235 235 234 234 234 235 234 233 233 234 235 236 238 239 240 241 241 241 241 242 243 244 245 245 246 248 249 250 252 252 252 253 254 256 259 260 263 267 272 274 274 277 280 283 287 289 293 299 303 306 310 315 321 327 333 338 343 351 359 3 7 10 14 17 19 17 16 17 18 17 18 19 20 20 20 20 19 18 14 8 2 358 357 358 355 350 346
235 235 235 235 234 234 234 235 234 233 233 234 235 236 238 239 240 241 241 241 241 242 243 243 244 245 246 247 249 250 251 251 251 252 254 256 257 259 263 267 269 269 271 274 277 282 283 286 291 296 300 302 304 308 314 322 329 335 341 348 353 359 2 5 9 13 14 13 12 12 11 10 11 14 15 15 15 14 13 12 8 2 357 354 354 356 353 350
235 235 235 235 234 234 234 234 234 233 233 233 234 235 236 237 238 240 240 241 241 241 242 243 243 244 245 246 247 249 250 250 250 251 252 253 254 257 259 262 264 265 266 268 272 276 278 280 283 288 292 295 295 298 303 310 318 325 331 338 344 349 354 357 359 3 8 9 8 8 7 4 2 3 7 8 9 9 8 8 6 0 355 352 350 351 352 349
234 234 235 235 235 234 234 234 234 233 233 233 233 234 235 236 237 238 239 240 240 240 241 242 243 243 244 245 246 247 249 249 248 249 250 251 252 254 256 259 260 261 262 263 266 270 273 275 277 281 286 289 291 293 296 301 308 315 321 328 333 338 343 348 350 353 357 0 2 3 3 2 357 353 354 358 359 0 0 1 2 359 353 350 347 347 348 347
235 234 234 234 234 234 234 233 233 233 233 233 233 233 234 235 236 237 238 239 240 240 241 241 242 243 243 244 245 246 247 248 248 248 249 250 250 251 254 256 257 259 259 260 262 265 268 270 272 276 279 284 288 290 293 296 301 307 313 318 324 328 333 338 342 344 347 350 353 355 356 358 358 352 348 348 347 349 351 352 354 355 351 348 344 343 344 343
236 235 233 233 234 234 234 233 233 233 233 232 232 232 233 234 234 236 237 238 239 240 240 241 241 242 243 243 244 244 245 247 247 247 247 248 248 249 251 253 255 256 257 257 258 261 264 266 269 271 274 279 284 288 291 293 296 300 305 310 315 319 324 328 333 336 339 341 343 345 346 349 354 352 347 345 342 340 342 343 345 347 346 345 342 340 340 340
237 236 235 233 233 233 234 234 233 232 232 232 232 232 232 233 233 234 236 237 238 239 240 241 241 241 242 242 243 243 244 245 246 247 246 246 247 248 249 251 253 255 255 255 255 257 261 263 266 268 270 274 279 283 287 290 293 296 300 304 308 313 316 320 324 327 331 334 335 337 337 339 345 347 345 345 343 338 337 337 337 338 339 339 338 336 336 337
236 237 236 235 233 233 233 234 233 232 232 232 232 231 231 231 232 234 235 236 237 239 240 240 240 241 241 242 242 242 243 244 245 246 246 245 246 247 248 250 252 253 253 253 253 254 258 261 263 265 267 270 274 279 283 287 290 293 297 299 302 306 309 313 316 319 322 326 328 330 331 332 337 341 341 341 341 339 337 336 334 333 332 333 333 333 333 333
237 236 236 236 235 233 232 233 233 232 232 231 231 231 231 231 231 233 234 235 236 237 238 239 240 241 241 241 241 241 242 242 243 245 245 245 245 246 248 249 251 251 251 251 252 253 256 259 261 263 266 268 271 275 280 283 287 291 295 297 300 302 304 307 309 312 315 318 321 324 326 327 330 334 336 335 336 337 336 335 335 333 330 329 329 331 331 330
237 237 236 236 236 234 233 232 233 233 232 231 231 231 230 230 230 231 233 233 234 236 238 239 240 240 241 241 241 241 241 242 243 244 245 246 246 246 248 249 248 248 249 251 252 252 253 256 259 261 263 265 267 271 275 279 283 288 292 295 298 300 301 302 305 307 310 313 315 318 320 323 324 327 330 330 330 332 334 334 334 333 332 329 329 330 330 328
237 237 236 236 236 235 234 232 232 232 232 231 230 230 230 230 229 230 231 232 234 235 236 237 239 240 241 241 241 241 241 241 242 243 243 245 246 246 247 246 246 247 249 250 251 251 251 253 256 259 260 263 265 267 270 274 279 283 287 290 293 296 297 299 301 303 306 308 310 312 315 317 319 322 324 325 326 328 330 331 331 331 331 331 331 331 330 328
237 237 236 236 235 235 234 233 232 231 232 231 231 230 230 229 229 229 230 231 232 234 235 236 238 239 240 241 241 241 241 241 241 242 242 244 245 245 245 245 245 246 247 249 250 250 251 252 255 257 258 260 263 265 267 270 274 277 280 284 287 290 293 296 298 300 302 304 306 308 310 312 315 318 320 321 322 323 326 328 329 329 329 330 331 331 329 328
236 236 236 236 235 235 234 234 232 231 231 231 231 230 229 229 229 229 229 230 231 233 234 235 236 238 239 240 240 240 240 240 240 241 241 242 244 245 245 245 245 245 246 248 249 250 251 252 254 256 256 258 261 263 265 268 270 273 276 280 283 285 289 293 296 298 300 301 302 304 306 308 311 314 316 317 319 320 322 325 326 327 327 328 329 329 329 327
235 236 236 235 235 235 234 234 233 231 230 231 230 230 229 229 229 229 229 229 230 232 233 234 235 236 238 239 240 240 240 240 240 240 240 241 242 244 244 245 245 245 246 247 249 250 251 252 253 254 255 257 259 261 264 266 268 271 274 277 279 282 286 290 293 295 297 299 300 302 303 305 308 311 313 314 316 318 319 322 323 324 325 326 327 327 327 326
235 235 235 235 234 234 234 234 233 231 230 230 230 229 229 229 229 229 228 228 229 231 232 233 234 236 237 238 239 239 239 239 239 239 239 240 241 242 244 244 244 245 246 247 249 250 251 251 252 254 255 257 259 261 263 264 267 270 272 274 277 280 283 287 290 292 294 296 298 299 300 303 306 309 310 312 314 316 318 320 321 322 324 324 324 325 325 324
234 234 234 234 234 234 233 233 233 231 230 229 229 229 229 229 229 229 228 228 229 230 231 232 233 235 236 237 238 238 239 239 239 239 239 239 240 241 243 244 244 245 246 247 249 250 251 251 251 253 255 257 259 261 262 264 266 268 270 272 275 277 280 283 286 288 291 293 294 296 297 300 303 305 307 309 311 314 316 318 319 320 321 322 322 322 323 323
233 234 234 233 233 233 233 233 233 232 230 229 229 229 229 229 228 228 228 228 228 229 230 231 232 234 235 236 237 238 238 238 238 238 238 239 239 241 242 243 244 246 246 247 248 249 251 251 251 252 255 257 258 261 263 264 266 267 269 271 273 276 278 280 283 285 288 290 291 293 295 297 299 301 302 304 308 311 313 315 317 318 319 320 320 321 321 322
233 233 233 233 232 232 232 232 232 231 230 228 228 228 228 229 228 228 228 228 227 228 229 230 231 233 234 235 236 237 238 238 238 238 238 238 239 241 242 243 244 246 246 247 248 249 250 251 251 252 254 256 258 261 262 264 265 267 268 270 272 275 277 278 281 283 285 288 289 291 293 294 296 298 299 301 304 308 310 312 313 315 317 318 319 319 320 320
233 232 232 232 232 232 232 232 231 231 229 228 228 228 228 228 228 228 227 227 227 228 228 229 230 232 233 234 235 236 237 238 238 238 238 238 239 240 241 242 244 245 246 247 248 249 250 251 252 252 253 255 257 259 261 263 265 266 267 269 272 275 276 277 279 281 284 286 288 289 291 292 294 295 296 299 302 305 307 309 311 312 314 315 316 317 318 319
233 232 231 231 231 231 231 231 231 230 229 228 228 228 228 228 228 227 227 227 227 227 228 229 230 231 232 233 234 235 236 237 238 238 238 238 239 240 241 242 243 244 246 247 248 249 250 251 252 252 253 254 257 259 261 263 264 265 267 269 271 273 275 277 279 280 282 284 286 287 288 291 293 293 295 297 300 303 305 307 308 310 311 313 315 315 316 317
234 232 231 230 230 230 230 230 230 230 229 228 227 227 227 227 228 227 227 227 227 227 228 228 229 230 231 232 233 234 235 236 237 238 237 237 238 240 241 242 243 244 245 246 247 248 250 251 252 253 253 255 256 258 260 261 262 265 268 269 270 271 274 276 278 280 281 283 285 285 286 289 291 292 294 296 299 301 303 305 306 308 310 311 312 313 314 315
234 232 231 230 229 229 230 230 229 229 229 228 227 227 227 227 228 227 227 227 227 227 227 228 229 230 231 231 232 233 234 235 237 237 238 237 238 239 240 241 242 243 244 245 247 249 250 251 252 253 254 254 255 257 259 260 262 266 267 268 269 271 273 275 277 278 280 281 283 283 285 288 290 291 293 296 298 300 301 303 305 306 308 309 310 311 312 313
234 233 231 229 229 228 229 229 229 229 228 228 227 227 227 227 227 227 227 227 226 226 227 228 228 229 230 231 231 232 233 235 236 237 237 238 238 239 240 241 242 243 244 245 247 249 250 251 252 253 253 253 254 256 258 260 262 264 266 267 269 271 273 275 276 277 278 280 281 282 284 286 288 290 292 296 298 299 300 302 304 305 306 307 308 309 310 311
233 232 231 229 228 228 228 228 228 228 228 228 227 226 226 226 227 227 227 226 226 226 226 227 228 229 230 230 231 232 233 234 235 236 237 237 238 239 240 241 242 243 244 245 247 248 250 251 252 252 253 253 254 255 257 259 261 263 265 267 269 270 272 274 275 276 277 278 279 281 283 285 286 289 292 295 296 298 300 302 303 304 305 305 306 308 309 310
232 232 231 229 227 227 227 227 227 227 227 227 226 226 226 226 226 226 226 226 226 226 226 227 228 228 229 230 231 232 232 233 234 236 237 237 238 239 240 241 242 243 244 245 246 247 249 250 251 252 253 253 254 255 256 258 260 262 264 267 269 271 273 274 275 275 276 277 279 280 283 284 285 288 292 294 295 297 299 301 302 302 303 304 305 307 308 310
232 231 231 229 227 227 227 227 227 227 227 226 226 226 226 226 226 226 226 226 226 226 226 227 227 228 229 230 231 231 232 233 234 235 236 237 238 239 240 241 243 243 244 245 245 247 248 249 251 252 253 253 254 256 257 258 260 262 264 266 269 271 273 273 274 274 276 277 278 280 283 284 285 289 292 293 294 296 298 299 300 301 302 303 305 306 308 309
232 231 231 229 228 227 227 227 227 227 227 226 226 225 225 225 226 226 225 225 225 225 226 226 227 228 229 230 230 231 232 232 233 235 236 237 238 239 240 241 242 243 244 244 245 246 248 249 251 252 253 254 255 256 257 259 260 262 264 267 269 271 272 273 273 274 276 277 279 281 283 284 286 290 292 293 295 296 297 298 300 300 302 303 304 305 307 307
232 231 231 230 229 227 227 227 227 227 226 226 226 226 225 225 225 225 225 225 225 225 225 226 227 227 229 229 230 231 232 232 233 234 235 237 238 238 239 241 242 243 244 245 245 246 247 249 251 252 253 255 255 256 257 259 261 263 266 268 269 270 271 272 273 274 276 277 280 281 283 283 286 289 291 292 293 294 295 297 298 299 300 301 302 303 304 305
232 231 231 230 229 228 228 228 228 227 227 226 226 225 225 225 225 225 225 225 224 224 225 225 226 227 228 229 230 231 232 232 233 234 235 236 237 238 239 241 242 243 244 245 246 247 248 249 250 252 254 255 256 257 258 259 262 264 267 268 268 269 271 273 273 274 275 278 280 281 281 283 285 287 289 289 290 291 292 294 295 296 297 299 300 301 302 303
Height
11021 11022 11023 11024 11025 11026 11027 11029 11029 11030 11030 11031 11032 11032 11033 11033 11033 11034 11034 11034 11034 11035 11034 11033 11033 11032 11031 11030 11029 11028 11026 11025 11023 11022 11020 11019 11018 11016 11015 11013 11011 11009 11007 11005 11003 11002 11000 10997 10995 10993 10991 10988 10986 10984 10982 10981 10979 10979 10978 10977 10977 10977 10977 10978 10979 10979 10980 10979 10978 10978 10978 10977 10977 10978 10978 10980 10980 10981 10981 10982 10982 10981 10981 10981 10981 10981 10981 10982
11019 11020 11021 11022 11023 11024 11025 11027 11028 11028 11029 11030 11030 11031 11031 11032 11032 11033 11033 11034 11034 11034 11034 11033 11033 11032 11031 11030 11029 11028 11027 11026 11024 11023 11021 11020 11019 11018 11016 11014 11012 11011 11009 11007 11005 11003 11001 10999 10997 10995 10992 10990 10988 10986 10983 10982 10980 10979 10978 10977 10977 10977 10977 10978 10978 10979 10979 10979 10978 10977 10978 10978 10977 10977 10978 10979 10980 10981 10982 10982 10982 10982 10981 10981 10981 10981 10981 10981
11016 11018 11019 11020 11021 11022 11023 11024 11026 11027 11028 11028 11029 11029 11030 11031 11031 11032 11032 11033 11033 11033 11033 11033 11033 11032 11031 11030 11029 11028 11027 11026 11024 11023 11022 11020 11019 11018 11017 11016 11014 11012 11010 11009 11007 11005 11003 11001 10999 10996 10994 10992 10989 10987 10985 10983 10981 10979 10977 10977 10977 10977 10977 10977 10977 10978 10978 10978 10978 10978 10978 10978 10978 10977 10977 10978 10979 10981 10982 10982 10982 10981 10981 10981 10981 10981 10981 10981
11013 11015 11016 11017 11018 11020 11021 11022 11024 11025 11026 11027 11027 11028 11028 11029 11030 11030 11031 11031 11032 11032 11033 11033 11032 11031 11031 11030 11029 11028 11027 11026 11025 11023 11022 11021 11020 11019 11018 11016 11015 11013 11012 11010 11009 11007 11005 11003 11001 10998 10996 10993 10991 10988 10986 10984 10982 10979 10977 10976 10976 10977 10977 10977 10978 10978 10978 10978 10977 10978 10978 10978 10978 10978 10978 10978 10979 10980 10981 10981 10981 10981 10981 10981 10981 10981 10981 10980
11010 11012 11013 11014 11015 11017 11018 11020 11021 11023 11024 11025 11026 11026 11027 11027 11028 11029 11029 11030 11030 11031 11031 11032 11031 11031 11030 11029 11029 11028 11027 11026 11025 11024 11022 11021 11020 11019 11018 11017 11016 11014 11013 11012 11010 11008 11006 11004 11002 11000 10998 10995 10992 10990 10987 10985 10983 10980 10978 10976 10975 10974 10975 10976 10977 10977 10977 10977 10977 10978 10978 10978 10979 10979 10979 10979 10979 10979 10980 10980 10980 10980 10980 10980 10980 10980 10980 10980
11006 11008 11010 11011 11012 11014 11015 11017 11019 11020 11021 11023 11024 11024 11025 11026 11026 11027 11028 11028 11029 11029 11030 11031 11031 11030 11030 11029 11028 11028 11027 11026 11025 11024 11023 11022 11021 11020 11019 11018 11016 11015 11014 11013 11011 11009 11008 11005 11003 11001 10999 10996 10994 10991 10988 10986 10984 10982 10979 10977 10975 10973 10973 10974 10975 10976 10976 10976 10977 10977 10978 10978 10979 10979 10979 10979 10980 10980 10979 10979 10979 10979 10979 10979 10979 10979 10980 10980
11003 11004 11006 11007 11009 11010 11012 11014 11016 11017 11019 11020 11021 11023 11023 11024 11025 11026 11026 11027 11027 11028 11029 11029 11029 11029 11029 11028 11028 11027 11027 11026 11025 11024 11023 11022 11021 11020 11019 11018 11017 11016 11015 11013 11012 11011 11009 11007 11005 11003 11000 10998 10995 10992 10990 10988 10985 10983 10980 10978 10976 10975 10974 10974 10975 10975 10975 10975 10976 10977 10977 10978 10978 10979 10979 10979 10979 10979 10979 10979 10979 10979 10979 10979 10979 10979 10979 10980
10999 11000 11002 11004 11005 11007 11008 11010 11013 11014 11016 11017 11019 11020 11021 11022 11023 11024 11025 11025 11025 11026 11027 11028 11028 11028 11028 11028 11027 11027 11026 11025 11025 11024 11023 11022 11022 11021 11020 11018 11017 11016 11015 11014 11013 11011 11010 11008 11006 11004 11002 10999 10997 10994 10992 10989 10987 10984 10982 10980 10978 10977 10976 10975 10975 10975 10975 10975 10975 10976 10977 10978 10978 10978 10978 10979 10979 10978 10978 10979 10979 10979 10978 10978 10978 10979 10979 10980
10995 10996 10998 11000 11001 11003 11004 11007 11009 11011 11013 11014 11016 11018 11019 11019 11021 11022 11023 11023 11024 11024 11025 11026 11027 11027 11027 11027 11026 11026 11026 11025 11024 11024 11023 11023 11022 11021 11020 11019 11018 11016 11015 11014 11013 11012 11011 11009 11007 11005 11003 11000 10998 10996 10993 10990 10988 10986 10983 10981 10980 10979 10978 10977 10976 10975 10975 10975 10975 10976 10977 10978 10978 10978 10978 10978 10978 10977 10977 10977 10978 10978 10978 10978 10978 10978 10979 10979
10990 10992 10994 10995 10997 10999 11000 11003 11005 11008 11010 11011 11013 11015 11016 11017 11018 11019 11020 11021 11022 11022 11023 11024 11025 11026 11026 11026 11026 11025 11025 11024 11024 11023 11023 11023 11022 11021 11020 11019 11018 11017 11015 11014 11013 11012 11011 11010 11008 11006 11004 11002 10999 10997 10995 10992 10989 10987 10985 10983 10981 10980 10980 10978 10977 10976 10975 10975 10975 10976 10977 10977 10978 10978 10977 10977 10977 10977 10977 10977 10977 10977 10977 10977 10977 10977 10978 10978
10986 10988 10990 10991 10993 10994 10996 10998 11001 11004 11006 11007 11009 11011 11013 11014 11016 11017 11018 11019 11020 11020 11021 11023 11024 11024 11025 11025 11025 11024 11024 11024 11023 11023 11023 11022 11022 11021 11020 11019 11018 11017 11016 11014 11013 11012 11011 11010 11008 11007 11005 11003 11001 10999 10997 10994 10991 10988 10986 10984 10983 10982 10981 10980 10978 10977 10975 10975 10976 10977 10977 10977 10977 10977 10977 10976 10976 10976 10976 10976 10976 10976 10976 10976 10976 10976 10977 10977
10981 10983 10985 10987 10988 10990 10992 10994 10997 11000 11002 11004 11006 11008 11009 11011 11013 11014 11015 11016 11017 11018 11019 11021 11022 11022 11023 11023 11023 11023 11023 11023 11023 11022 11022 11022 11021 11021 11020 11019 11018 11017 11016 11014 11013 11012 11011 11010 11009 11007 11006 11004 11002 11000 10998 10995 10992 10989 10987 10985 10984 10984 10983 10981 10979 10977 10976 10977 10977 10978 10978 10977 10977 10977 10977 10976 10976 10976 10976 10976 10976 10975 10975 10975 10975 10975 10975 10975
10976 10978 10980 10982 10984 10986 10987 10990 10993 10995 10997 11000 11002 11004 11006 11008 11009 11010 11012 11013 11014 11015 11017 11018 11020 11020 11021 11022 11022 11022 11022 11022 11022 11022 11021 11021 11021 11020 11020 11019 11018 11017 11016 11015 11013 11012 11011 11010 11009 11008 11006 11005 11004 11002 11000 10997 10994 10991 10989 10987 10986 10985 10984 10982 10979 10978 10977 10978 10978 10979 10978 10977 10977 10977 10977 10976 10976 10976 10976 10976 10975 10975 10975 10974 10974 10974 10974 10973
10970 10973 10975 10977 10979 10981 10983 10985 10988 10991 10993 10995 10998 11000 11002 11004 11006 11007 11008 11010 11011 11012 11014 11016 11017 11018 11019 11020 11020 11020 11021 11021 11021 11021 11020 11020 11020 11020 11020 11019 11018 11017 11016 11015 11013 11012 11011 11010 11009 11008 11007 11006 11005 11003 11001 10999 10996 10993 10991 10989 10987 10986 10985 10983 10981 10979 10979 10979 10979 10979 10978 10977 10977 10977 10977 10977 10976 10976 10976 10975 10975 10975 10974 10974 10973 10973 10972 10972
10964 10967 10970 10972 10974 10976 10978 10980 10983 10986 10988 10991 10994 10996 10998 11000 11002 11003 11005 11007 11008 11009 11011 11013 11014 11016 11017 11018 11018 11019 11019 11019 11020 11019 11019 11019 11019 11019 11019 11019 11018 11017 11016 11015 11014 11013 11011 11010 11009 11009 11008 11007 11006 11005 11003 11000 10997 10995 10993 10991 10989 10988 10986 10984 10982 10981 10981 10980 10980 10979 10978 10978 10977 10977 10977 10977 10976 10976 10976 10975 10975 10975 10974 10973 10973 10972 10971 10971
10958 10961 10964 10966 10969 10971 10973 10976 10979 10981 10983 10986 10989 10991 10994 10996 10998 10999 11001 11003 11005 11006 11008 11009 11011 11013 11014 11015 11016 11017 11017 11018 11018 11018 11018 11018 11018 11018 11018 11018 11017 11016 11015 11015 11014 11013 11012 11010 11009 11009 11008 11008 11007 11005 11004 11001 10998 10996 10995 10993 10992 10990 10987 10985 10983 10983 10982 10982 10982 10981 10980 10979 10978 10978 10978 10977 10977 10976 10975 10975 10974 10974 10973 10973 10972 10971 10971 10970
10952 10955 10957 10960 10963 10965 10968 10971 10973 10976 10978 10981 10984 10986 10989 10992 10994 10995 10997 10999 11001 11003 11004 11006 11008 11010 11011 11013 11014 11014 11015 11016 11016 11016 11016 11016 11017 11017 11016 11017 11016 11016 11015 11014 11013 11012 11012 11010 11009 11008 11008 11008 11007 11006 11004 11002 10999 10998 10996 10995 10994 10992 10989 10987 10985 10984 10983 10983 10983 10982 10981 10980 10979 10979 10979 10978 10976 10975 10975 10974 10974 10973 10973 10972 10971 10971 10970 10970
10945 10948 10951 10954 10957 10959 10962 10965 10968 10970 10973 10976 10978 10981 10984 10987 10989 10991 10992 10995 10997 10999 11001 11003 11004 11006 11008 11010 11011 11012 11013 11013 11014 11015 11015 11015 11015 11015 11015 11015 11015 11015 11014 11013 11013 11012 11011 11010 11009 11008 11007 11007 11007 11006 11004 11002 11000 10999 10997 10996 10995 10993 10991 10989 10987 10985 10984 10984 10983 10982 10981 10980 10980 10980 10979 10977 10976 10975 10974 10973 10973 10972 10972 10971 10971 10970 10969 10969
10939 10942 10945 10947 10950 10953 10956 10960 10963 10965 10967 10970 10973 10976 10979 10982 10984 10986 10988 10990 10993 10995 10997 10999 11001 11003 11004 11006 11008 11009 11010 11011 11012 11012 11013 11013 11013 11013 11014 11014 11014 11013 11013 11012 11012 11011 11010 11009 11008 11007 11006 11006 11006 11005 11004 11003 11001 11000 10998 10997 10995 10993 10992 10990 10989 10987 10986 10985 10984 10983 10982 10981 10980 10980 10978 10976 10975 10974 10973 10972 10971 10971 10971 10970 10969 10969 10968 10967
10933 10936 10938 10941 10944 10947 10950 10954 10957 10959 10962 10965 10968 10971 10974 10977 10980 10982 10984 10986 10988 10991 10993 10995 10997 10999 11001 11003 11004 11006 11007 11008 11009 11010 11010 11011 11011 11012 11012 11012 11012 11012 11012 11011 11010 11010 11009 11008 11007 11006 11005 11004 11004 11004 11003 11003 11002 11001 11000 10998 10996 10994 10993 10991 10990 10988 10987 10985 10984 10983 10983 10982 10980 10979 10977 10975 10974 10973 10971 10970 10970 10969 10969 10968 10967 10967 10966 10965
10925 10929 10932 10935 10937 10940 10943 10947 10951 10953 10956 10959 10962 10965 10968 10971 10975 10977 10979 10981 10984 10986 10989 10991 10993 10995 10997 10998 11000 11002 11004 11006 11007 11007 11008 11009 11009 11010 11010 11010 11011 11011 11010 11010 11009 11009 11008 11007 11006 11005 11004 11003 11002 11002 11002 11002 11002 11001 11000 10999 10997 10995 10993 10992 10990 10989 10987 10986 10985 10984 10983 10982 10981 10979 10977 10975 10974 10972 10970 10969 10968 10967 10967 10966 10966 10965 10964 10964
10918 10921 10925 10928 10931 10934 10937 10941 10944 10947 10950 10953 10956 10959 10963 10966 10969 10972 10974 10976 10979 10981 10984 10986 10989 10991 10993 10994 10997 10998 11000 11002 11004 11004 11005 11006 11007 11008 11008 11008 11009 11009 11009 11008 11007 11007 11007 11006 11005 11004 11003 11002 11001 11000 11000 11000 11000 11000 10999 10998 10997 10995 10994 10992 10991 10989 10988 10986 10985 10984 10983 10982 10981 10980 10978 10976 10974 10972 10970 10969 10967 10966 10966 10965 10965 10964 10963 10963
10910 10914 10917 10921 10924 10927 10930 10934 10938 10941 10943 10947 10950 10954 10958 10961 10964 10967 10969 10971 10974 10976 10979 10982 10984 10986 10988 10990 10992 10994 10996 10999 11000 11001 11002 11003 11004 11005 11005 11006 11007 11007 11007 11006 11006 11005 11005 11004 11004 11003 11002 11001 11000 10999 10998 10998 10998 10999 10998 10997 10996 10994 10993 10992 10991 10989 10988 10986 10985 10984 10983 10982 10981 10979 10978 10976 10974 10972 10970 10968 10967 10966 10965 10964 10964 10963 10962 10961
10903 10906 10909 10913 10916 10920 10923 10927 10931 10934 10937 10941 10944 10948 10952 10955 10958 10961 10963 10966 10969 10971 10974 10977 10979 10981 10984 10986 10988 10990 10992 10995 10997 10998 10998 11000 11001 11002 11002 11003 11004 11005 11005 11004 11004 11003 11003 11002 11002 11001 11001 11000 10999 10998 10997 10997 10996 10996 10996 10996 10995 10994 10993 10991 10990 10989 10987 10986 10984 10983 10982 10981 10980 10979 10977 10975 10974 10972 10970 10968 10967 10965 10964 10963 10963 10962 10961 10960
10895 10898 10902 10905 10909 10912 10916 10920 10924 10928 10931 10935 10938 10942 10946 10949 10952 10955 10958 10960 10963 10965 10969 10971 10973 10976 10978 10981 10983 10985 10988 10991 10993 10994 10995 10996 10997 10998 10999 11001 11002 11002 11002 11002 11001 11001 11001 11001 11000 10999 10999 10998 10998 10998 10997 10996 10995 10994 10994 10993 10993 10992 10991 10990 10989 10988 10986 10985 10984 10983 10981 10980 10979 10978 10976 10975 10973 10972 10970 10968 10967 10965 10964 10963 10962 10961 10960 10960
10886 10890 10894 10897 10901 10905 10908 10912 10917 10921 10925 10928 10932 10936 10939 10943 10946 10949 10952 10954 10957 10960 10963 10965 10967 10970 10973 10976 10978 10981 10984 10987 10988 10989 10991 10993 10993 10995 10996 10997 10999 10999 10999 10999 10999 10999 10999 10998 10998 10997 10997 10997 10996 10996 10996 10995 10994 10993 10992 10992 10991 10990 10990 10989 10988 10987 10986 10985 10983 10982 10981 10980 10978 10977 10976 10975 10973 10972 10970 10969 10967 10966 10964 10962 10961 10960 10959 10959
10878 10882 10885 10889 10893 10897 10900 10904 10909 10914 10918 10921 10925 10929 10932 10936 10940 10943 10945 10947 10951 10954 10956 10959 10962 10965 10968 10971 10974 10977 10980 10982 10984 10986 10987 10988 10990 10991 10992 10994 10995 10996 10996 10997 10997 10997 10997 10996 10996 10995 10995 10994 10994 10994 10994 10993 10992 10992 10991 10990 10989 10989 10988 10988 10987 10986 10985 10984 10983 10982 10980 10979 10978 10976 10975 10974 10973 10971 10970 10968 10967 10965 10964 10962 10961 10959 10958 10957
10869 10873 10877 10881 10885 10888 10892 10896 10901 10906 10910 10914 10918 10922 10926 10929 10933 10936 10938 10941 10945 10948 10950 10953 10956 10959 10962 10965 10969 10972 10975 10977 10980 10982 10983 10984 10986 10987 10988 10990 10991 10992 10993 10994 10994 10994 10994 10994 10993 10993 10992 10992 10991 10991 10991 10990 10990 10989 10989 10988 10988 10987 10986 10986 10985 10984 10983 10983 10982 10981 10980 10978 10977 10975 10974 10973 10971 10970 10969 10967 10966 10965 10963 10962 10960 10958 10957 10956
10860 10864 10868 10872 10876 10880 10884 10888 10893 10897 10902 10907 10910 10914 10919 10922 10926 10929 10931 10935 10939 10941 10943 10947 10950 10954 10957 10960 10963 10966 10969 10972 10975 10977 10978 10980 10981 10982 10983 10986 10987 10989 10990 10990 10990 10991 10991 10991 10991 10990 10990 10989 10988 10988 10988 10987 10987 10987 10986 10985 10985 10985 10984 10983 10983 10982 10982 10981 10980 10980 10979 10978 10976 10975 10973 10972 10970 10969 10967 10966 10965 10964 10962 10961 10959 10957 10956 10954
10851 10855 10859 10864 10867 10871 10875 10880 10885 10889 10894 10899 10903 10907 10911 10915 10918 10921 10925 10930 10933 10934 10937 10941 10944 10948 10951 10954 10957 10961 10964 10967 10970 10972 10974 10975 10977 10978 10979 10981 10983 10985 10986 10986 10986 10987 10987 10988 10988 10988 10987 10986 10985 10985 10985 10984 10984 10984 10984 10983 10982 10982 10981 10980 10980 10980 10979 10979 10979 10978 10977 10976 10975 10974 10972 10971 10969 10967 10966 10965 10964 10963 10962 10960 10958 10956 10954 10953
10842 10845 10850 10854 10858 10863 10867 10871 10876 10881 10886 10891 10895 10899 10903 10907 10911 10915 10920 10925 10927 10927 10931 10935 10938 10941 10944 10948 10951 10955 10959 10961 10964 10967 10969 10971 10972 10973 10974 10976 10979 10981 10982 10982 10982 10983 10983 10984 10984 10984 10984 10983 10983 10982 10982 10981 10981 10981 10981 10980 10979 10979 10978 10978 10977 10977 10977 10977 10976 10976 10975 10974 10973 10973 10971 10970 10968 10966 10965 10964 10963 10962 10960 10959 10957 10955 10953 10951
10832 10836 10840 10845 10849 10854 10859 10863 10867 10872 10877 10882 10886 10891 10895 10899 10904 10909 10914 10916 10917 10920 10924 10929 10932 10935 10937 10941 10945 10949 10952 10955 10959 10961 10964 10966 10967 10968 10969 10972 10975 10976 10977 10977 10977 10978 10979 10980 10980 10981 10981 10980 10980 10979 10979 10978 10978 10978 10977 10977 10976 10976 10975 10974 10974 10974 10973 10973 10973 10973 10972 10971 10971 10970 10969 10968 10966 10965 10963 10962 10961 10960 10959 10958 10956 10954 10952 10949
10823 10826 10830 10836 10840 10845 10851 10854 10858 10863 10868 10872 10877 10882 10887 10892 10899 10903 10904 10906 10910 10914 10919 10923 10925 10928 10930 10934 10939 10943 10946 10950 10953 10956 10958 10960 10962 10963 10965 10968 10970 10970 10971 10972 10973 10974 10975 10975 10976 10977 10977 10977 10977 10976 10976 10975 10974 10974 10974 10973 10973 10972 10971 10971 10970 10969 10969 10969 10969 10969 10969 10968 10968 10968 10967 10966 10965 10963 10962 10960 10959 10958 10957 10956 10955 10953 10951 10948
10812 10815 10820 10826 10831 10836 10841 10844 10848 10854 10859 10863 10868 10873 10879 10886 10891 10893 10894 10899 10904 10909 10912 10915 10918 10921 10924 10929 10934 10937 10941 10944 10947 10950 10953 10955 10957 10959 10960 10962 10963 10964 10966 10967 10968 10969 10970 10971 10972 10973 10974 10973 10973 10974 10973 10973 10972 10972 10971 10971 10970 10969 10969 10968 10967 10966 10965 10965 10965 10965 10965 10964 10964 10965 10964 10964 10963 10961 10960 10959 10956 10955 10955 10954 10953 10951 10949 10946
10802 10805 10810 10816 10821 10826 10830 10834 10839 10845 10849 10854 10859 10866 10873 10878 10880 10880 10885 10892 10898 10901 10904 10908 10911 10914 10918 10923 10927 10931 10934 10938 10941 10944 10947 10950 10952 10953 10954 10955 10957 10959 10960 10961 10963 10964 10964 10966 10968 10969 10970 10969 10970 10970 10970 10970 10970 10969 10969 10969 10968 10967 10966 10965 10965 10963 10962 10961 10960 10960 10960 10960 10960 10961 10960 10960 10960 10958 10958 10957 10955 10952 10951 10950 10950 10949 10947 10945
10791 10794 10799 10805 10811 10816 10820 10824 10830 10835 10840 10844 10850 10858 10864 10866 10868 10872 10879 10886 10890 10893 10897 10901 10903 10907 10912 10916 10920 10924 10928 10932 10935 10938 10942 10945 10946 10947 10948 10949 10951 10953 10955 10956 10957 10958 10959 10961 10963 10964 10965 10965 10965 10966 10966 10967 10966 10966 10967 10966 10966 10965 10963 10963 10962 10960 10959 10958 10956 10955 10955 10955 10955 10956 10956 10955 10955 10955 10954 10953 10952 10950 10948 10946 10946 10945 10944 10942
10780 10783 10788 10795 10801 10806 10810 10814 10820 10826 10831 10835 10843 10850 10853 10855 10859 10865 10872 10877 10881 10885 10890 10892 10896 10900 10905 10909 10913 10918 10922 10925 10928 10931 10935 10938 10940 10942 10942 10943 10945 10947 10948 10950 10952 10953 10954 10957 10958 10959 10960 10960 10960 10961 10962 10963 10963 10963 10963 10963 10962 10961 10960 10959 10958 10956 10955 10954 10952 10951 10951 10950 10949 10950 10950 10950 10950 10950 10950 10949 10948 10947 10945 10943 10941 10940 10940 10939
10768 10772 10778 10784 10790 10795 10799 10804 10810 10816 10821 10827 10835 10839 10841 10845 10851 10857 10864 10868 10873 10878 10881 10884 10889 10894 10899 10903 10906 10911 10915 10918 10921 10925 10928 10931 10934 10935 10936 10937 10938 10939 10942 10945 10947 10948 10949 10951 10953 10953 10954 10955 10955 10957 10957 10958 10958 10959 10959 10959 10958 10958 10957 10956 10955 10953 10951 10950 10948 10947 10947 10946 10945 10944 10943 10943 10943 10944 10944 10944 10943 10942 10941 10940 10938 10937 10936 10935
10757 10761 10767 10774 10780 10784 10789 10793 10799 10805 10813 10820 10825 10828 10831 10836 10841 10848 10855 10859 10864 10868 10872 10877 10883 10887 10891 10894 10899 10904 10908 10911 10915 10918 10921 10924 10927 10928 10929 10930 10932 10933 10936 10939 10941 10942 10943 10945 10947 10948 10948 10950 10950 10951 10952 10953 10954 10954 10954 10954 10954 10954 10954 10953 10951 10949 10948 10946 10944 10943 10943 10943 10943 10941 10939 10937 10937 10937 10938 10938 10937 10937 10936 10935 10934 10933 10932 10931
10746 10750 10756 10763 10769 10774 10778 10783 10788 10796 10805 10811 10814 10817 10821 10825 10831 10839 10845 10849 10855 10859 10864 10870 10875 10879 10882 10887 10892 10897 10901 10905 10909 10911 10913 10917 10920 10921 10921 10924 10926 10928 10930 10933 10935 10936 10937 10939 10942 10943 10943 10944 10945 10945 10946 10948 10949 10949 10949 10950 10950 10950 10949 10949 10947 10946 10944 10942 10940 10938 10938 10940 10941 10939 10937 10935 10934 10933 10933 10933 10932 10932 10931 10930 10929 10928 10927 10926
10735 10740 10746 10753 10759 10763 10768 10773 10779 10787 10795 10799 10802 10805 10809 10814 10822 10829 10834 10840 10846 10851 10856 10862 10867 10871 10875 10880 10885 10890 10893 10898 10902 10903 10906 10911 10913 10913 10914 10918 10921 10922 10924 10927 10929 10930 10931 10932 10935 10938 10938 10938 10940 10940 10941 10942 10943 10944 10944 10944 10945 10945 10945 10944 10943 10941 10940 10938 10936 10933 10932 10935 10937 10936 10934 10932 10932 10931 10930 10929 10928 10927 10926 10925 10924 10923 10921 10920
10725 10730 10735 10742 10748 10753 10758 10764 10770 10777 10783 10787 10790 10794 10798 10805 10812 10819 10824 10830 10836 10842 10848 10853 10858 10863 10867 10872 10878 10883 10886 10890 10894 10896 10900 10904 10904 10905 10908 10912 10914 10915 10919 10921 10922 10923 10924 10925 10929 10933 10932 10933 10934 10934 10935 10937 10938 10938 10938 10939 10940 10940 10939 10939 10938 10936 10936 10934 10932 10929 10926 10928 10932 10931 10930 10929 10928 10928 10927 10926 10925 10924 10922 10921 10919 10918 10916 10914
10715 10719 10724 10731 10738 10742 10747 10754 10760 10765 10771 10777 10780 10784 10789 10795 10802 10808 10814 10821 10827 10833 10839 10844 10849 10854 10859 10865 10871 10875 10878 10882 10886 10889 10893 10896 10896 10898 10902 10905 10907 10910 10913 10915 10915 10916 10917 10919 10923 10926 10926 10927 10928 10929 10930 10931 10931 10932 10933 10934 10935 10935 10934 10934 10932 10931 10931 10929 10928 10925 10920 10922 10925 10925 10925 10925 10924 10923 10923 10922 10921 10920 10918 10916 10914 10913 10911 10909
10705 10709 10715 10721 10727 10732 10738 10744 10750 10755 10761 10766 10768 10772 10780 10786 10792 10798 10805 10811 10818 10825 10830 10835 10841 10846 10851 10858 10863 10866 10871 10875 10879 10882 10885 10887 10888 10891 10895 10897 10900 10903 10906 10908 10908 10909 10911 10914 10916 10918 10920 10922 10923 10923 10924 10923 10924 10927 10929 10928 10929 10929 10929 10929 10928 10926 10925 10924 10923 10920 10915 10916 10918 10918 10919 10921 10920 10918 10918 10917 10916 10915 10914 10912 10910 10908 10906 10904
10696 10700 10705 10712 10718 10723 10728 10734 10739 10745 10750 10755 10758 10764 10771 10776 10782 10789 10795 10801 10809 10815 10820 10825 10831 10837 10843 10849 10854 10858 10863 10867 10871 10874 10877 10879 10881 10883 10887 10889 10892 10895 10898 10901 10902 10903 10906 10908 10909 10912 10915 10916 10916 10916 10916 10916 10919 10923 10922 10922 10923 10924 10924 10924 10923 10922 10920 10918 10918 10915 10911 10910 10910 10911 10914 10915 10914 10913 10912 10911 10910 10909 10909 10908 10906 10903 10901 10899
10688 10691 10696 10703 10708 10713 10718 10723 10729 10735 10740 10744 10749 10755 10761 10766 10772 10779 10785 10791 10799 10805 10810 10816 10822 10828 10833 10839 10845 10850 10855 10859 10863 10866 10869 10871 10873 10876 10879 10882 10885 10888 10891 10894 10896 10898 10900 10902 10903 10905 10907 10908 10910 10910 10909 10910 10914 10916 10916 10916 10918 10919 10919 10919 10918 10917 10915 10914 10912 10909 10907 10905 10903 10905 10908 10908 10907 10906 10905 10905 10904 10903 10902 10902 10900 10899 10896 10893
10680 10683 10687 10693 10699 10704 10709 10714 10719 10725 10730 10734 10740 10745 10750 10756 10762 10768 10775 10782 10788 10795 10800 10806 10812 10818 10824 10831 10837 10842 10847 10852 10855 10858 10860 10863 10866 10868 10871 10874 10877 10880 10883 10886 10890 10892 10893 10895 10896 10898 10899 10901 10903 10904 10903 10904 10907 10909 10910 10911 10912 10913 10914 10913 10913 10911 10910 10909 10907 10904 10903 10900 10897 10898 10902 10903 10901 10899 10899 10898 10898 10896 10895 10895 10894 10893 10891 10889
10673 10675 10679 10684 10690 10695 10699 10704 10709 10715 10719 10724 10730 10735 10739 10745 10751 10758 10766 10772 10778 10784 10790 10796 10803 10809 10816 10823 10828 10834 10839 10843 10847 10850 10853 10856 10859 10861 10863 10866 10868 10872 10876 10879 10883 10885 10886 10887 10889 10890 10892 10894 10895 10896 10897 10899 10901 10902 10904 10905 10906 10907 10907 10907 10907 10905 10904 10903 10902 10899 10898 10895 10891 10892 10896 10896 10895 10894 10893 10892 10891 10890 10888 10887 10886 10885 10884 10883
10665 10668 10671 10676 10681 10686 10690 10694 10699 10704 10709 10715 10720 10724 10729 10735 10741 10748 10756 10762 10768 10774 10780 10787 10795 10801 10807 10813 10819 10824 10830 10835 10839 10842 10845 10848 10851 10853 10856 10858 10860 10864 10868 10871 10875 10877 10878 10880 10882 10883 10885 10887 10888 10889 10891 10892 10894 10896 10898 10900 10900 10901 10901 10900 10900 10899 10898 10897 10896 10894 10893 10890 10885 10886 10889 10888 10887 10888 10886 10884 10883 10882 10881 10879 10878 10877 10876 10874
10658 10661 10664 10668 10673 10677 10681 10685 10690 10695 10700 10705 10710 10715 10719 10725 10731 10738 10746 10752 10758 10765 10772 10779 10786 10792 10797 10803 10809 10815 10821 10826 10831 10834 10837 10840 10843 10846 10848 10849 10851 10855 10858 10862 10867 10869 10871 10873 10876 10876 10878 10880 10881 10882 10883 10885 10887 10889 10892 10894 10895 10894 10893 10893 10894 10893 10892 10891 10890 10889 10888 10884 10880 10881 10881 10880 10880 10880 10878 10876 10875 10874 10873 10872 10870 10869 10868 10866
10651 10654 10657 10660 10664 10668 10672 10676 10681 10686 10691 10696 10701 10706 10710 10715 10721 10728 10735 10742 10749 10756 10763 10770 10777 10782 10787 10793 10800 10807 10812 10818 10822 10826 10829 10832 10835 10838 10840 10840 10842 10846 10849 10853 10858 10861 10864 10867 10869 10869 10872 10873 10874 10875 10876 10878 10880 10883 10886 10888 10887 10885 10885 10886 10887 10887 10886 10885 10884 10883 10882 10879 10877 10877 10875 10874 10874 10873 10871 10870 10869 10868 10867 10866 10864 10863 10861 10859
10644 10647 10650 10653 10656 10660 10664 10668 10672 10677 10683 10688 10692 10696 10701 10706 10711 10718 10726 10733 10740 10746 10753 10760 10766 10771 10777 10784 10792 10798 10804 10809 10813 10816 10820 10823 10826 10829 10831 10832 10834 10838 10841 10846 10850 10854 10858 10861 10862 10863 10866 10867 10866 10866 10869 10871 10874 10879 10881 10879 10876 10876 10878 10880 10880 10880 10879 10879 10879 10877 10875 10874 10874 10873 10870 10867 10866 10866 10865 10864 10863 10862 10862 10860 10859 10857 10855 10853